Regional Weather Roundup
Issued by NWS Burlington, VT

Home | Current Version | Previous Version | Text Only | Print | Product List | Glossary On
Versions: 1 2 3 4 5 6 7 8 9 10 11 12 13 14 15 16 17 18 19 20 21 22 23 24 25 26 27 28 29 30 31 32 33 34 35 36 37 38 39 40 41 42 43 44 45 46 47 48 49 50
084
ASUS41 KBTV 290730
RWRBTV
VERMONT REGIONAL WEATHER ROUNDUP
NATIONAL WEATHER SERVICE BURLINGTON VT
300 AM EDT FRI JUL 29 2016

NOTE: "FAIR" INDICATES FEW OR NO CLOUDS BELOW 12,000 FEET WITH NO
SIGNIFICANT WEATHER AND/OR OBSTRUCTIONS TO VISIBILITY.

* THESE REPORTS ARE NOT UNDER NWS QUALITY CONTROL AND/OR DO NOT
  REPORT WEATHER SUCH AS PRECIPITATION AND FOG.

VTZ001>019-290800-
_____VERMONT_____


CITY           SKY/WX    TMP DP  RH WIND       PRES   REMARKS
BURLINGTON     CLOUDY    69  65  86 CALM      29.90S
MONTPELIER     FOG       65  65 100 CALM      29.96F VSB 1
MORRISVILLE    CLOUDY    64  62  93 S3        29.94S
ST. JOHNSBURY*   N/A     66  62  87 MISG      29.90S
LYNDONVILLE*   LGT RAIN  64  63  97 CALM      29.94S
MIDDLEBURY*    MOCLDY    64  64 100 CALM      29.90S
RUTLAND*       MOCLDY    64  64 100 CALM      29.91F
SPRINGFIELD    FAIR      66  63  90 CALM      29.90S
HIGHGATE*      CLOUDY    66  66  98 CALM      29.90S FOG
NEWPORT*       CLOUDY    64  64  99 CALM      29.93S FOG
BENNINGTON     CLOUDY    67  64  90 CALM      29.91R
SUTTON*          N/A     64 N/A N/A MISG        N/A
MT. MANSFIELD*   N/A     59 N/A N/A CALM        N/A

_____LAKE CHAMPLAIN_____


CITY           SKY/WX    TMP DP  RH WIND       PRES   REMARKS
BURTON ISLAND*   N/A     72  68  88 SE3         N/A
COLCHESTER RF*   N/A     72  68  88 W7          N/A
DIAMOND ISL*     N/A     72  66  83 W3          N/A

$$

NYZ007-026>031-035-052-083-087-290800-
_____NORTHERN NEW YORK_____


CITY           SKY/WX    TMP DP  RH WIND       PRES   REMARKS
PLATTSBURGH    CLOUDY    67  65  93 W5        29.90R
SARANAC LAKE   CLOUDY    60  59  96 CALM      29.95R FOG
MASSENA        PTCLDY    59  57  93 CALM      29.92S
OGDENSBURG*    PTCLDY    64  63  94 NE3       29.91S
POTSDAM*       MOCLDY    63  63 100 CALM      29.91F FOG
WATERTOWN      MOCLDY    68  66  93 NE6       29.89S
FT DRUM        CLOUDY    66  64  94 NE2       29.91R
ALBANY         HVY RAIN  71  66  84 SW3       29.89S
GLENS FALLS    CLOUDY    69  65  86 CALM      29.89S

$$
NHZ002-005-011-290800-
_____NEW HAMPSHIRE_____


CITY           SKY/WX    TMP DP  RH WIND       PRES   REMARKS
LEBANON        CLOUDY    67  64  90 CALM      29.90R
KEENE          LGT RAIN  71  66  84 CALM      29.88S
MT WASHINGTON  MOCLDY    52  48  87 W15         N/A
PLYMOUTH       FAIR      65  64  96 CALM      29.89S FOG
WHITEFIELD     CLOUDY    61  58  90 CALM      29.93S

$$

_____REGIONAL QUEBEC LOCATIONS_____


CITY           SKY/WX    TMP DP  RH WIND       PRES   REMARKS
MONTREAL       PTCLDY    66  55  68 NW9       29.91R
QUEBEC CITY    PTCLDY    63  57  82 N6        29.90R
SHERBROOKE     CLOUDY    61  61 100 CALM      29.91R

_____REGIONAL ONTARIO LOCATIONS_____


CITY           SKY/WX    TMP DP  RH WIND       PRES   REMARKS
OTTAWA         CLEAR     66  55  68 N10       29.94S

______KEY______
VSB  - VISIBILITY IN MILES
WCI  - WIND CHILL INDEX
HX   - HEAT INDEX
$$
NNNN




USA.gov is the U.S. government's official web portal to all federal, state and local government web resources and services.